Wind_Speed
46 43 41 39 42 42 35 23 10 23 35 16 17 15 21 30 28 12 9 10 16 13 15 14 16 14 13 13 8 6 11 5 6 11 5 5 10 10 9 4 7 2 3 6
46 43 42 44 44 49 44 19 17 31 37 12 13 19 25 29 25 16 14 12 12 13 14 11 13 9 4 7 7 3 4 4 6 11 8 8 8 12 10 9 2 4 3 3
48 45 43 45 47 51 41 24 8 13 31 24 20 23 22 25 31 18 17 12 15 12 12 8 9 9 4 4 2 3 4 6 10 7 11 5 6 11 11 10 2 4 10 14
50 46 44 45 48 51 41 22 12 18 9 17 17 21 20 25 23 20 18 16 17 14 9 12 11 11 7 4 3 2 3 9 12 15 15 7 10 12 7 10 10 10 11 15
49 46 46 46 47 47 43 23 17 22 12 27 22 22 25 24 25 18 20 13 16 13 13 12 10 11 8 7 7 8 5 6 6 9 10 12 11 15 14 14 15 14 14 14
45 46 46 46 44 47 31 30 28 24 16 21 21 21 22 25 18 23 29 17 14 15 10 5 9 2 17 7 11 10 7 3 2 3 6 7 5 10 16 16 15 11 12 11
43 43 43 43 41 54 29 33 17 13 10 18 21 24 23 25 21 17 14 11 18 9 19 18 17 14 9 5 3 9 6 5 2 1 1 1 10 0 4 4 8 9 11 9
42 43 40 40 38 60 43 37 15 9 6 17 25 29 22 26 25 20 20 4 2 25 12 4 4 2 3 2 4 4 4 5 2 3 4 9 13 3 1 0 3 10 8 9
41 39 39 39 41 53 47 37 13 9 7 17 36 26 29 13 10 5 3 12 12 10 3 3 4 4 6 7 7 1 2 5 3 3 3 5 0 5 2 1 2 7 6 6
37 37 37 40 34 50 46 40 20 8 6 21 35 24 20 23 8 8 12 7 5 0 3 3 3 3 5 5 6 4 2 1 4 4 2 6 6 8 1 2 3 6 7 8
37 37 38 37 44 45 38 48 31 7 7 22 31 32 26 25 23 7 13 7 4 4 3 3 2 2 4 3 8 8 7 6 4 3 2 6 6 5 1 4 5 5 6 6
36 38 41 26 45 38 37 39 26 10 17 3 12 18 10 11 13 18 22 7 13 9 4 2 3 2 2 2 2 9 4 6 4 7 4 5 8 9 6 4 4 4 3 6
35 38 33 31 42 46 55 45 28 13 6 5 9 10 16 15 9 14 8 6 12 9 7 5 2 3 3 3 3 3 6 5 2 3 4 7 7 6 6 7 6 5 4 4
36 36 27 41 39 49 52 46 15 8 3 4 5 2 1 10 10 13 10 12 12 14 12 5 3 3 6 3 3 3 1 8 6 5 7 2 14 11 7 5 5 4 6 6
40 33 35 42 48 46 42 42 28 13 7 5 7 6 4 2 10 10 8 14 19 11 4 3 2 4 4 1 2 1 7 2 3 1 7 7 11 7 5 6 7 8 9 13
40 41 39 40 37 32 22 12 31 8 9 6 3 4 6 7 8 8 9 10 8 6 5 3 5 3 0 3 3 6 10 9 8 6 8 12 12 11 11 13 13 14 15 15
38 39 40 35 32 31 18 3 8 8 6 5 3 3 5 11 11 9 7 7 6 4 5 3 5 4 4 3 3 12 8 8 7 6 11 9 6 14 14 16 16 16 16 15
35 35 35 34 35 24 13 1 14 10 6 6 3 0 4 4 5 4 4 4 4 6 4 3 3 4 2 2 11 12 10 10 9 10 10 20 19 17 15 14 14 16 17 15
36 35 34 39 30 7 12 7 14 6 4 7 3 2 4 4 4 5 4 3 3 3 2 2 4 3 2 6 10 9 7 6 11 13 15 16 17 16 15 15 14 13 12 11
37 41 23 8 12 21 17 9 5 6 1 3 2 9 3 3 3 3 3 3 2 2 1 5 2 3 8 6 6 5 6 9 13 15 15 16 17 16 15 13 13 13 12 9
36 6 5 20 27 9 3 1 3 2 3 3 3 5 3 3 2 3 4 2 2 3 3 3 3 3 5 8 8 9 12 15 12 13 16 16 18 18 15 14 13 10 8 8
13 20 27 13 6 4 4 2 2 1 2 2 1 5 5 5 4 4 2 3 0 2 7 3 4 3 13 12 11 11 12 14 18 19 21 18 16 15 15 13 11 9 7 6
34 11 5 4 6 5 4 6 3 3 5 6 8 4 4 4 4 5 2 3 2 12 2 3 2 14 15 16 17 17 19 21 22 20 18 18 17 14 11 12 10 7 4 4
6 5 5 4 2 2 3 3 3 3 9 15 13 5 3 4 3 2 4 2 3 3 4 3 5 17 19 19 21 22 21 22 20 18 17 16 14 13 11 9 7 3 3 7
7 6 3 2 2 4 3 5 5 9 15 10 8 6 5 3 4 3 4 3 4 4 2 3 18 23 21 22 21 20 23 20 18 16 15 14 12 9 8 5 2 4 6 9
6 7 4 4 5 2 6 11 10 8 8 6 3 3 4 3 3 3 2 6 3 3 3 16 25 23 21 21 19 21 18 16 16 15 13 12 10 6 4 1 3 7 10 13
5 5 11 10 11 7 5 5 6 6 4 2 1 3 4 2 2 2 3 2 2 10 15 21 25 24 21 21 21 22 18 16 13 13 11 9 6 4 3 1 6 7 9 13
Wind_Direction
218 216 210 209 207 202 195 180 206 200 176 177 211 220 217 232 247 199 242 265 250 223 232 200 221 212 213 204 235 227 233 304 264 216 262 351 324 295 220 207 265 223 238 287
214 209 205 207 205 201 190 184 176 177 184 199 204 213 222 236 235 225 202 235 238 239 245 207 208 215 42 115 198 244 249 232 266 277 204 199 236 253 252 277 240 248 164 253
208 205 204 205 204 199 179 182 177 180 201 217 198 198 216 225 232 234 211 221 233 235 235 204 210 212 128 140 160 84 336 251 250 239 260 355 231 236 250 231 167 246 261 273
205 201 203 203 204 198 178 196 199 191 183 205 212 200 213 214 214 211 247 227 219 218 211 232 219 210 119 155 132 179 233 243 258 265 276 275 293 298 250 249 248 237 250 259
196 197 203 203 205 198 195 209 194 169 190 194 210 214 215 217 209 193 226 226 222 201 218 226 201 210 154 180 169 208 201 248 281 300 298 295 277 276 278 271 277 273 268 268
191 198 201 201 205 194 200 205 214 169 202 191 197 211 212 220 220 210 203 210 224 216 207 132 75 67 177 208 164 201 195 233 126 241 353 351 329 252 252 263 268 263 266 276
194 197 201 200 204 202 191 203 217 212 197 187 199 203 207 218 215 214 197 213 217 147 120 95 80 70 74 116 107 196 187 224 81 145 341 299 247 215 329 322 305 308 311 324
194 197 198 198 202 204 193 207 235 225 226 187 191 200 201 221 221 219 210 122 72 146 134 110 96 79 44 233 162 186 243 135 131 148 215 277 306 205 274 305 311 20 5 346
195 197 195 195 197 204 201 210 223 243 205 210 191 196 198 199 197 109 354 105 147 186 96 99 166 167 216 178 145 325 184 158 148 148 183 217 304 109 78 31 238 53 50 48
193 197 195 199 204 200 205 219 209 279 226 220 194 201 197 197 168 145 157 142 162 313 84 109 119 199 220 184 151 172 91 326 185 154 203 289 301 123 90 224 71 36 0 355
191 195 196 200 204 196 202 209 203 224 224 184 197 192 206 195 175 162 146 155 196 142 96 121 173 126 214 248 188 160 169 165 191 145 146 268 143 130 210 62 114 41 9 24
192 192 196 202 197 194 200 217 205 201 245 180 167 176 157 156 209 162 163 180 159 171 109 168 78 83 25 41 214 206 198 190 178 175 211 149 171 77 91 58 17 354 4 342
190 192 197 203 188 187 193 196 203 254 170 136 128 128 183 201 147 163 151 202 177 165 133 135 107 146 161 150 230 244 203 117 179 74 278 172 162 89 63 37 30 20 23 339
192 192 191 190 194 192 195 202 203 273 201 106 67 83 163 193 177 168 150 173 153 149 131 103 125 134 197 195 249 192 56 134 202 225 247 185 93 80 56 46 38 42 35 21
195 183 190 187 182 186 198 207 219 265 214 129 117 106 39 192 191 189 162 166 159 141 103 92 140 98 101 68 24 211 185 229 174 229 66 62 88 67 52 72 64 66 81 71
178 183 173 173 175 179 170 217 235 267 112 113 108 96 65 91 138 155 147 157 166 126 108 100 87 100 350 131 179 87 81 83 53 102 96 98 101 83 85 90 87 86 90 92
158 157 164 169 169 160 178 149 151 159 132 100 92 106 150 122 109 103 92 98 96 99 99 83 134 115 109 128 176 118 106 100 87 107 129 108 148 107 99 97 97 100 100 100
152 156 162 164 156 168 198 106 141 138 102 72 98 109 137 156 130 108 66 102 89 48 99 108 113 84 65 141 113 120 118 109 99 93 95 124 117 111 105 106 111 107 104 101
156 156 154 153 162 136 169 163 156 101 89 125 120 116 185 130 85 104 80 87 79 75 100 110 116 135 129 90 127 125 115 127 130 117 116 121 119 117 116 115 112 108 110 103
146 139 137 143 168 144 162 153 171 166 161 76 86 120 178 118 128 79 109 49 125 140 90 123 146 89 109 113 118 129 140 155 143 133 129 128 123 122 121 115 106 106 106 109
133 124 79 129 121 102 122 92 76 52 51 51 101 136 134 55 122 138 51 147 214 124 132 170 155 158 145 137 118 105 128 141 125 136 135 134 130 128 117 104 109 114 108 93
145 124 119 116 147 103 88 37 4 186 124 123 101 68 93 90 97 99 153 90 49 121 143 114 168 119 140 137 125 119 131 138 132 133 125 124 125 124 124 119 112 107 104 98
120 100 71 40 12 72 135 173 214 147 158 165 155 113 117 96 92 91 132 124 104 125 100 159 72 140 139 132 131 127 127 127 125 123 124 127 130 131 125 123 122 121 98 35
79 76 57 29 64 25 45 3 54 115 142 130 125 106 114 133 88 116 92 67 141 163 176 184 141 147 140 140 134 130 133 135 129 130 132 128 130 128 127 127 125 98 11 351
80 95 102 89 155 68 87 90 97 101 126 122 116 89 89 68 95 67 115 149 172 207 166 117 144 145 146 144 140 141 142 144 141 140 138 135 134 134 129 117 60 357 342 339
55 55 101 116 115 73 73 85 75 97 113 106 85 107 79 75 115 140 158 165 169 110 96 136 147 144 145 142 144 144 142 146 143 143 144 143 143 140 121 47 359 343 334 337
46 38 60 70 72 66 61 73 64 85 61 49 4 63 52 118 74 88 11 48 62 121 126 147 150 143 141 140 147 147 141 138 141 143 149 150 145 135 118 78 341 356 339 333
Height
1390 1401 1410 1419 1428 1439 1449 1454 1458 1456 1464 1474 1470 1463 1460 1458 1451 1450 1453 1451 1449 1449 1448 1453 1459 1460 1455 1457 1461 1468 1467 1468 1477 1474 1464 1465 1469 1472 1471 1492 1494 1485 1495 1491
1381 1391 1401 1410 1419 1427 1436 1445 1451 1454 1455 1454 1454 1460 1458 1453 1449 1445 1450 1452 1450 1446 1448 1454 1453 1453 1461 1459 1462 1466 1466 1473 1488 1479 1470 1467 1473 1470 1469 1471 1476 1491 1507 1491
1371 1383 1392 1401 1410 1419 1431 1439 1442 1447 1449 1446 1448 1452 1450 1448 1445 1444 1445 1447 1449 1446 1448 1446 1455 1454 1464 1465 1466 1470 1471 1470 1477 1488 1475 1467 1469 1470 1467 1471 1493 1491 1489 1479
1362 1374 1384 1393 1401 1411 1424 1422 1418 1423 1430 1437 1439 1441 1441 1441 1440 1442 1444 1444 1445 1445 1453 1451 1454 1452 1463 1467 1469 1471 1472 1478 1473 1468 1464 1464 1469 1467 1465 1470 1471 1484 1480 1475
1354 1366 1376 1385 1394 1405 1415 1411 1407 1417 1422 1433 1437 1434 1432 1432 1432 1438 1443 1443 1441 1441 1448 1448 1452 1451 1458 1464 1470 1470 1470 1477 1475 1476 1469 1468 1475 1470 1467 1467 1467 1465 1466 1467
1348 1359 1369 1378 1387 1398 1398 1404 1406 1409 1416 1421 1427 1421 1428 1429 1427 1432 1437 1438 1440 1441 1441 1441 1447 1445 1449 1454 1462 1468 1469 1476 1481 1488 1480 1482 1493 1474 1469 1465 1462 1463 1471 1464
1344 1354 1363 1374 1382 1386 1395 1400 1405 1407 1406 1410 1412 1423 1425 1425 1424 1428 1431 1435 1437 1440 1442 1446 1449 1453 1455 1456 1459 1462 1467 1473 1481 1491 1499 1506 1468 1459 1460 1463 1461 1460 1459 1459
1340 1350 1360 1369 1376 1385 1393 1399 1405 1403 1406 1403 1412 1413 1420 1423 1424 1425 1431 1433 1437 1438 1442 1450 1460 1467 1471 1467 1463 1465 1465 1474 1489 1505 1490 1474 1464 1458 1463 1464 1467 1462 1464 1465
1336 1346 1356 1365 1373 1382 1392 1392 1398 1402 1401 1393 1404 1411 1413 1415 1420 1424 1435 1432 1440 1441 1439 1450 1460 1468 1460 1461 1468 1469 1468 1469 1484 1494 1501 1502 1463 1464 1466 1465 1476 1468 1469 1470
1334 1343 1352 1358 1367 1379 1385 1390 1397 1398 1398 1395 1398 1397 1402 1411 1416 1425 1434 1437 1443 1441 1448 1468 1468 1459 1448 1458 1468 1488 1483 1486 1490 1489 1496 1480 1460 1464 1467 1478 1481 1472 1473 1472
1333 1341 1348 1357 1366 1375 1383 1383 1391 1398 1396 1387 1395 1400 1404 1407 1417 1422 1427 1439 1440 1439 1452 1462 1454 1461 1453 1453 1451 1469 1478 1481 1492 1484 1499 1494 1463 1467 1473 1473 1472 1474 1474 1475
1330 1338 1347 1352 1365 1374 1381 1385 1388 1393 1399 1393 1390 1395 1398 1401 1411 1411 1422 1424 1428 1432 1437 1447 1448 1463 1464 1456 1460 1447 1461 1459 1466 1471 1473 1464 1465 1467 1471 1472 1474 1475 1477 1477
1328 1336 1345 1352 1361 1368 1374 1381 1387 1386 1389 1392 1394 1398 1402 1404 1407 1414 1417 1422 1423 1426 1428 1438 1445 1459 1451 1468 1455 1447 1449 1454 1458 1462 1456 1459 1464 1468 1471 1473 1475 1475 1476 1477
1326 1333 1340 1351 1359 1367 1375 1381 1383 1389 1392 1393 1401 1401 1402 1403 1408 1409 1413 1418 1421 1424 1429 1436 1447 1452 1443 1450 1447 1447 1450 1453 1456 1456 1457 1460 1466 1470 1473 1475 1476 1477 1477 1477
1324 1332 1342 1352 1360 1369 1375 1383 1385 1389 1396 1397 1403 1404 1405 1406 1409 1413 1416 1419 1421 1425 1431 1437 1439 1441 1446 1448 1449 1450 1449 1451 1457 1461 1462 1463 1469 1472 1474 1475 1477 1477 1478 1479
1325 1333 1343 1353 1363 1372 1382 1389 1385 1383 1387 1392 1404 1409 1410 1411 1413 1417 1419 1421 1423 1426 1430 1435 1438 1441 1444 1453 1451 1449 1451 1455 1458 1459 1464 1467 1471 1474 1475 1476 1478 1479 1480 1481
1327 1338 1348 1358 1367 1375 1381 1381 1383 1385 1390 1391 1405 1409 1411 1414 1416 1418 1421 1421 1423 1427 1432 1436 1438 1442 1444 1452 1448 1451 1455 1458 1461 1463 1465 1469 1471 1475 1477 1478 1480 1481 1482 1484
1333 1343 1353 1361 1371 1376 1382 1384 1386 1389 1390 1394 1404 1411 1414 1415 1416 1421 1422 1425 1427 1432 1436 1439 1440 1444 1446 1447 1449 1453 1457 1460 1462 1464 1465 1468 1472 1475 1478 1480 1482 1483 1485 1487
1339 1349 1359 1369 1375 1378 1381 1383 1387 1391 1396 1398 1404 1411 1413 1414 1417 1420 1424 1426 1432 1435 1436 1438 1441 1446 1448 1448 1452 1454 1458 1461 1464 1466 1469 1472 1474 1477 1480 1482 1485 1486 1488 1491
1344 1355 1364 1372 1375 1380 1385 1391 1393 1397 1397 1396 1401 1403 1408 1413 1416 1422 1426 1428 1432 1434 1439 1439 1440 1447 1451 1453 1455 1457 1459 1462 1464 1467 1472 1474 1476 1480 1482 1484 1486 1488 1489 1491
1350 1355 1362 1370 1375 1381 1387 1389 1390 1393 1397 1399 1402 1405 1408 1412 1414 1421 1426 1430 1432 1432 1436 1438 1440 1444 1452 1454 1456 1457 1459 1461 1464 1468 1471 1475 1477 1480 1483 1485 1487 1488 1490 1491
1351 1356 1367 1375 1376 1381 1388 1393 1396 1395 1396 1402 1403 1405 1408 1412 1416 1420 1428 1429 1432 1432 1437 1440 1437 1449 1451 1454 1456 1458 1459 1462 1465 1469 1473 1477 1479 1481 1484 1485 1487 1489 1490 1491
1355 1361 1370 1374 1381 1384 1388 1394 1395 1397 1400 1402 1403 1407 1411 1414 1417 1422 1425 1427 1430 1432 1438 1434 1441 1447 1451 1454 1457 1460 1462 1466 1469 1472 1475 1477 1479 1482 1484 1485 1487 1489 1490 1491
1358 1369 1380 1383 1386 1388 1390 1392 1392 1397 1398 1401 1404 1407 1411 1415 1418 1422 1425 1434 1432 1435 1435 1434 1443 1447 1451 1456 1459 1461 1465 1467 1470 1473 1476 1478 1480 1482 1485 1486 1488 1489 1489 1489
1369 1379 1387 1393 1396 1395 1395 1395 1397 1398 1400 1402 1405 1407 1410 1414 1418 1423 1430 1433 1430 1426 1427 1437 1442 1447 1452 1456 1460 1462 1465 1469 1472 1474 1477 1479 1481 1483 1484 1486 1487 1488 1488 1487
1375 1384 1389 1394 1395 1398 1398 1399 1399 1400 1402 1404 1405 1407 1413 1417 1419 1421 1423 1421 1420 1430 1436 1439 1443 1448 1453 1457 1460 1464 1469 1471 1473 1475 1477 1480 1481 1483 1484 1485 1486 1485 1485 1484
1386 1391 1391 1391 1394 1397 1399 1401 1402 1403 1405 1407 1406 1409 1416 1419 1420 1423 1426 1428 1433 1437 1438 1441 1445 1449 1454 1459 1463 1466 1470 1472 1474 1476 1478 1480 1481 1483 1484 1485 1484 1484 1483 1481